When you browse on this site, cookies collect data to enhance your experience and personalize the content and advertising you see.
Visit our Privacy Policy to learn more. By continuing to use the site, you agree to this use of cookies and data.
  • en France
  • Liste des pays
  • À 7 jours
  • Température de l'eau
  • Carte satellitaire
  • Carte météo
  • Widgets météo
  • user-avatar
    Se connecter

    Météo par heure à Mazari Sharif

    Ce jour, 17 Novembre, Samedi

    Heure Température Précipitation Vent Pression Humidité
    00:00 +8°C° 0 mm 2 m/s 657 mmHg 42%
    01:00 +8°C° 0 mm 2 m/s 657 mmHg 41%
    02:00 +8°C° 0 mm 2 m/s 657 mmHg 41%
    03:00 +8°C° 0 mm 2 m/s 656 mmHg 40%
    04:00 +8°C° 0 mm 2 m/s 656 mmHg 40%
    05:00 +8°C° 0 mm 2 m/s 656 mmHg 40%
    06:00 +8°C° 0 mm 2 m/s 656 mmHg 40%
    07:00 +8°C° 0 mm 2 m/s 656 mmHg 39%
    08:00 +9°C° 0.1 mm 2 m/s 656 mmHg 37%
    09:00 +12°C° 0.1 mm 2 m/s 656 mmHg 35%
    10:00 +13°C° 0 mm 1 m/s 657 mmHg 34%
    11:00 +13°C° 0.3 mm 2 m/s 656 mmHg 36%
    12:00 +13°C° 0.3 mm 2 m/s 656 mmHg 38%
    13:00 +12°C° 0.3 mm 2 m/s 656 mmHg 40%
    14:00 +10°C° 0.4 mm 2 m/s 656 mmHg 45%
    15:00 +9°C° 0.4 mm 2 m/s 656 mmHg 50%
    16:00 +8°C° 0.4 mm 2 m/s 656 mmHg 55%
    17:00 +8°C° 0.6 mm 2 m/s 656 mmHg 58%
    18:00 +9°C° 0.6 mm 1 m/s 656 mmHg 62%
    19:00 +9°C° 0.6 mm 1 m/s 657 mmHg 65%
    20:00 +8°C° 0.2 mm 1 m/s 657 mmHg 66%
    21:00 +8°C° 0.2 mm 1 m/s 657 mmHg 68%
    22:00 +8°C° 0.2 mm 1 m/s 657 mmHg 69%
    23:00 +8°C° 0.1 mm 1 m/s 657 mmHg 70%

    Demain, 18 Novembre, Dimanche

    Heure Température Précipitation Vent Pression Humidité
    00:00 +7°C° 0.1 mm 1 m/s 657 mmHg 71%
    01:00 +7°C° 0.1 mm 1 m/s 657 mmHg 72%
    02:00 +7°C° 0.1 mm 1 m/s 657 mmHg 73%
    03:00 +7°C° 0.1 mm 1 m/s 657 mmHg 74%
    04:00 +7°C° 0.1 mm 1 m/s 657 mmHg 75%
    05:00 +7°C° 0.1 mm 1 m/s 657 mmHg 75%
    06:00 +7°C° 0.1 mm 1 m/s 657 mmHg 74%
    07:00 +7°C° 0.1 mm 1 m/s 657 mmHg 74%
    08:00 +8°C° 0.1 mm 1 m/s 657 mmHg 70%
    09:00 +9°C° 0.1 mm 1 m/s 658 mmHg 65%
    10:00 +10°C° 0.1 mm 1 m/s 658 mmHg 61%
    11:00 +9°C° 0 mm 2 m/s 658 mmHg 59%
    12:00 +10°C° 0 mm 2 m/s 657 mmHg 56%
    13:00 +10°C° 0 mm 2 m/s 657 mmHg 54%
    14:00 +10°C° 0 mm 2 m/s 657 mmHg 56%
    15:00 +10°C° 0 mm 2 m/s 657 mmHg 58%
    16:00 +9°C° 0 mm 2 m/s 657 mmHg 59%
    17:00 +10°C° 0 mm 1 m/s 657 mmHg 63%
    18:00 +9°C° 0 mm 1 m/s 657 mmHg 66%
    19:00 +7°C° 0 mm 0 m/s 657 mmHg 69%
    20:00 +7°C° 0 mm 0 m/s 657 mmHg 70%
    21:00 +7°C° 0 mm 0 m/s 657 mmHg 72%
    22:00 +7°C° 0 mm 1 m/s 657 mmHg 73%
    23:00 +7°C° 0 mm 1 m/s 657 mmHg 74%

    Après-demain, 19 Novembre, Lundi

    Heure Température Précipitation Vent Pression Humidité
    00:00 +7°C° 0 mm 1 m/s 657 mmHg 75%
    01:00 +7°C° 0 mm 1 m/s 657 mmHg 76%
    02:00 +7°C° 0 mm 1 m/s 656 mmHg 76%
    03:00 +6°C° 0 mm 1 m/s 656 mmHg 77%
    04:00 +5°C° 0 mm 2 m/s 656 mmHg 78%
    05:00 +5°C° 0 mm 2 m/s 656 mmHg 76%
    06:00 +6°C° 0 mm 2 m/s 656 mmHg 75%
    07:00 +6°C° 0 mm 2 m/s 656 mmHg 74%
    08:00 +7°C° 0 mm 2 m/s 657 mmHg 66%
    09:00 +9°C° 0 mm 2 m/s 657 mmHg 59%
    10:00 +12°C° 0 mm 2 m/s 658 mmHg 51%
    11:00 +12°C° 0 mm 2 m/s 657 mmHg 49%
    12:00 +13°C° 0 mm 2 m/s 657 mmHg 47%
    13:00 +14°C° 0 mm 2 m/s 657 mmHg 45%
    14:00 +13°C° 0 mm 2 m/s 657 mmHg 48%
    15:00 +12°C° 0 mm 1 m/s 657 mmHg 50%
    16:00 +12°C° 0 mm 1 m/s 657 mmHg 53%
    17:00 +11°C° 0 mm 1 m/s 657 mmHg 55%
    18:00 +10°C° 0 mm 1 m/s 657 mmHg 58%
    19:00 +9°C° 0 mm 1 m/s 657 mmHg 60%
    20:00 +9°C° 0 mm 1 m/s 657 mmHg 60%
    21:00 +9°C° 0 mm 1 m/s 657 mmHg 60%
    22:00 +8°C° 0 mm 1 m/s 657 mmHg 60%
    23:00 +8°C° 0 mm 1 m/s 657 mmHg 61%

    20 Novembre, Mardi

    Heure Température Précipitation Vent Pression Humidité
    00:00 +8°C° 0 mm 1 m/s 657 mmHg 62%
    01:00 +8°C° 0 mm 1 m/s 657 mmHg 63%
    02:00 +7°C° 0 mm 1 m/s 657 mmHg 64%
    03:00 +7°C° 0 mm 1 m/s 657 mmHg 66%
    04:00 +7°C° 0 mm 1 m/s 657 mmHg 68%
    05:00 +7°C° 0 mm 1 m/s 657 mmHg 69%
    06:00 +7°C° 0 mm 1 m/s 658 mmHg 70%
    07:00 +7°C° 0 mm 1 m/s 658 mmHg 71%
    08:00 +8°C° 0 mm 1 m/s 659 mmHg 64%
    09:00 +9°C° 0 mm 2 m/s 659 mmHg 58%
    10:00 +10°C° 0 mm 2 m/s 660 mmHg 52%
    11:00 +12°C° 0 mm 2 m/s 660 mmHg 51%
    12:00 +12°C° 0 mm 2 m/s 659 mmHg 50%
    13:00 +11°C° 0 mm 3 m/s 659 mmHg 48%
    14:00 +12°C° 0 mm 2 m/s 659 mmHg 51%
    15:00 +10°C° 0 mm 2 m/s 659 mmHg 53%
    16:00 +10°C° 0 mm 2 m/s 659 mmHg 55%
    17:00 +9°C° 0 mm 2 m/s 659 mmHg 59%
    18:00 +9°C° 0 mm 1 m/s 659 mmHg 62%
    19:00 +8°C° 0 mm 1 m/s 659 mmHg 66%
    20:00 +8°C° 0 mm 1 m/s 659 mmHg 67%
    21:00 +7°C° 0 mm 1 m/s 659 mmHg 68%
    22:00 +7°C° 0 mm 1 m/s 659 mmHg 68%
    23:00 +7°C° 0 mm 1 m/s 658 mmHg 68%

    21 Novembre, Mercredi

    Heure Température Précipitation Vent Pression Humidité
    00:00 +7°C° 0 mm 1 m/s 658 mmHg 68%
    01:00 +7°C° 0 mm 1 m/s 658 mmHg 68%
    02:00 +7°C° 0 mm 1 m/s 657 mmHg 67%
    03:00 +6°C° 0 mm 2 m/s 657 mmHg 66%
    04:00 +6°C° 0 mm 2 m/s 657 mmHg 66%
    05:00 +6°C° 0 mm 2 m/s 656 mmHg 64%
    06:00 +5°C° 0 mm 3 m/s 656 mmHg 63%
    07:00 +5°C° 0 mm 3 m/s 656 mmHg 61%
    08:00 +8°C° 0 mm 3 m/s 656 mmHg 54%
    09:00 +10°C° 0 mm 3 m/s 657 mmHg 47%
    10:00 +12°C° 0 mm 3 m/s 657 mmHg 40%
    11:00 +13°C° 0 mm 3 m/s 656 mmHg 37%
    12:00 +13°C° 0 mm 4 m/s 655 mmHg 35%
    13:00 +14°C° 0 mm 4 m/s 654 mmHg 32%
    14:00 +13°C° 0 mm 3 m/s 654 mmHg 34%
    15:00 +12°C° 0 mm 3 m/s 653 mmHg 37%
    16:00 +13°C° 0 mm 2 m/s 653 mmHg 39%
    17:00 +12°C° 0 mm 2 m/s 653 mmHg 41%
    18:00 +12°C° 0 mm 2 m/s 653 mmHg 43%
    19:00 +11°C° 0 mm 1 m/s 653 mmHg 45%
    20:00 +10°C° 0.1 mm 2 m/s 653 mmHg 51%
    21:00 +9°C° 0.1 mm 3 m/s 653 mmHg 57%
    22:00 +7°C° 0.1 mm 4 m/s 653 mmHg 63%
    23:00 +8°C° 0 mm 3 m/s 653 mmHg 66%

    22 Novembre, Jeudi

    Heure Température Précipitation Vent Pression Humidité
    00:00 +7°C° 0 mm 3 m/s 653 mmHg 70%
    01:00 +7°C° 0 mm 2 m/s 652 mmHg 73%
    02:00 +7°C° 0.2 mm 2 m/s 653 mmHg 74%
    03:00 +7°C° 0.2 mm 2 m/s 653 mmHg 75%
    04:00 +8°C° 0.2 mm 1 m/s 653 mmHg 76%
    05:00 +8°C° 0.6 mm 1 m/s 654 mmHg 77%
    06:00 +8°C° 0.6 mm 1 m/s 654 mmHg 78%
    07:00 +7°C° 0.6 mm 1 m/s 655 mmHg 79%
    08:00 +8°C° 0.6 mm 1 m/s 655 mmHg 76%
    09:00 +9°C° 0.6 mm 1 m/s 656 mmHg 73%
    10:00 +9°C° 0.6 mm 1 m/s 656 mmHg 70%
    11:00 +10°C° 0.1 mm 1 m/s 656 mmHg 67%
    12:00 +10°C° 0.1 mm 2 m/s 656 mmHg 64%
    13:00 +12°C° 0.1 mm 2 m/s 656 mmHg 60%
    14:00 +10°C° 0 mm 2 m/s 656 mmHg 61%
    15:00 +10°C° 0 mm 2 m/s 656 mmHg 62%
    16:00 +10°C° 0 mm 2 m/s 656 mmHg 63%
    17:00 +9°C° 0 mm 2 m/s 656 mmHg 64%
    18:00 +9°C° 0 mm 2 m/s 656 mmHg 66%
    19:00 +8°C° 0 mm 2 m/s 656 mmHg 67%
    20:00 +8°C° 0 mm 2 m/s 656 mmHg 66%
    21:00 +8°C° 0 mm 3 m/s 656 mmHg 65%
    22:00 +8°C° 0 mm 3 m/s 655 mmHg 64%
    23:00 +8°C° 0 mm 3 m/s 655 mmHg 63%
    Voir plus